Wetbulb
30.98 25.93 23.61 25.64 27.05 26.85 25.31 24.14 22.67 25.85 27.35 25.06 25.18 24.44 29.12 32.37 28.20 26.82 26.83 25.63 24.96 25.68 25.73 26.07 27.12 26.45 25.83 26.02 25.14 25.90 26.39 27.77 28.44 27.95 27.52 28.21 28.67 29.97 31.00 33.91 34.36 35.25 35.88 37.96
26.77 23.56 28.69 30.52 29.18 27.19 26.23 23.99 22.93 26.52 26.80 25.19 23.53 23.28 28.87 30.59 27.18 25.40 25.13 24.94 25.04 22.65 21.95 23.84 23.91 23.58 24.25 24.12 23.97 24.89 26.19 26.80 27.54 28.07 28.10 29.60 29.01 29.15 30.85 32.50 33.73 35.61 38.54 40.74
24.21 27.46 31.67 29.81 27.10 26.27 24.68 23.84 23.46 23.40 25.36 22.70 21.19 19.90 22.92 27.98 24.92 25.99 25.50 23.46 24.01 23.60 21.46 20.68 21.90 21.00 21.78 22.11 22.24 24.56 25.62 25.67 25.89 26.71 28.34 28.30 28.30 28.45 28.49 30.21 31.86 34.85 35.74 36.89
25.76 29.59 28.28 26.73 26.06 26.12 21.00 26.68 25.67 24.27 18.24 15.09 22.71 11.95 22.84 24.33 24.17 25.39 26.02 23.96 21.70 19.57 20.80 21.14 21.35 20.67 19.97 22.13 22.85 22.94 24.10 24.45 25.30 26.18 26.05 25.23 25.26 24.51 26.92 28.06 31.98 32.97 34.47 36.63
25.34 26.18 26.17 23.87 26.42 27.14 22.00 26.36 23.92 23.70 16.53 12.06 19.82 15.33 19.66 21.45 22.76 23.26 24.12 24.67 21.47 19.65 18.97 20.14 18.81 22.36 20.05 22.83 21.06 20.81 21.85 23.42 25.26 25.36 25.67 25.52 24.82 26.12 27.67 28.82 30.21 31.21 33.00 36.65
26.53 29.64 27.63 26.40 27.65 27.44 27.59 24.90 24.93 21.50 18.03 7.84 17.78 17.13 18.99 18.83 19.07 21.43 22.06 22.81 23.08 20.86 21.78 21.08 20.87 21.59 20.08 20.76 20.13 20.71 21.49 23.03 24.07 24.19 24.83 24.26 24.02 25.03 25.60 27.19 28.08 29.26 32.49 35.12
27.12 25.75 27.16 29.86 25.84 27.70 26.82 25.13 19.92 11.61 5.26 11.74 18.76 15.96 20.86 19.92 18.87 17.02 17.73 20.43 17.38 19.51 20.33 19.14 18.41 18.72 19.88 19.26 20.11 20.68 21.50 21.25 22.27 22.33 22.54 23.19 23.76 24.32 25.37 26.27 27.00 28.26 30.03 31.31
19.50 17.79 23.94 28.68 26.36 26.04 25.79 24.39 19.28 7.69 5.92 14.49 19.13 12.85 20.48 18.12 12.88 9.64 13.31 13.04 18.16 20.06 20.32 18.92 18.79 18.39 18.01 20.00 20.01 19.90 20.42 20.26 21.34 20.40 20.90 22.18 22.38 23.39 25.14 25.39 25.90 27.06 28.96 30.53
17.30 18.49 26.04 27.23 28.46 27.35 24.79 21.93 22.60 9.50 9.27 13.81 15.35 18.04 21.24 22.41 16.69 12.79 15.31 20.88 19.82 19.06 18.20 16.29 18.01 17.29 16.63 16.73 18.46 18.87 18.91 19.68 19.44 19.60 19.83 20.86 20.73 22.06 22.88 22.98 24.67 25.44 27.92 29.75
24.15 15.35 26.00 26.53 27.95 26.23 25.83 25.97 19.10 17.97 12.27 7.10 10.71 9.25 13.15 13.64 14.90 16.26 15.57 18.86 18.07 17.88 17.65 16.59 16.34 16.17 16.77 17.14 16.91 17.49 17.71 14.13 14.02 17.16 18.54 21.77 20.10 20.43 21.47 20.82 22.32 25.23 26.41 26.95
25.64 21.70 22.50 26.23 22.40 23.15 22.40 21.73 20.71 19.26 12.61 5.25 4.27 11.46 12.21 12.16 11.18 14.53 18.07 20.19 15.22 15.02 14.13 14.18 14.52 14.55 12.55 12.36 10.97 12.29 12.26 9.62 13.61 15.79 17.38 19.49 19.45 19.25 18.19 20.05 24.03 24.82 25.52 25.55
26.95 25.33 19.24 22.68 24.53 26.15 24.56 21.45 20.88 13.82 6.54 -0.13 3.94 12.96 9.27 9.03 5.41 5.60 16.14 20.04 15.82 14.43 12.38 12.36 12.25 9.35 7.96 7.74 8.52 8.54 9.09 9.46 13.26 15.78 17.29 18.65 20.16 21.09 16.74 17.30 20.56 25.07 25.18 25.98
27.48 24.31 18.08 19.26 22.16 23.62 21.31 21.27 17.59 11.91 10.44 6.17 7.18 13.15 7.88 2.07 10.24 15.47 15.15 15.10 14.36 15.31 11.90 8.67 5.77 5.10 4.72 6.38 7.22 7.26 8.39 10.53 12.96 13.38 15.90 16.45 18.29 20.67 20.17 21.98 23.75 25.44 25.27 24.94
31.44 24.20 21.98 19.38 21.65 21.49 18.79 17.45 17.61 16.63 4.16 3.75 8.06 13.14 24.33 20.59 15.36 21.52 15.55 11.92 6.64 6.95 5.96 3.26 4.39 4.47 3.72 4.94 5.73 7.78 9.24 10.48 13.86 14.62 15.28 13.59 15.80 18.46 19.46 21.74 24.36 25.55 25.71 24.82
28.31 16.82 21.69 23.81 24.88 24.19 22.72 20.54 17.70 17.30 11.37 13.32 7.61 4.30 18.85 20.35 18.97 16.91 4.35 7.75 9.00 8.86 5.88 4.49 0.03 2.92 3.50 4.87 7.00 5.66 7.61 9.77 13.09 14.90 16.01 15.74 16.75 17.51 17.72 16.89 16.91 19.08 24.93 25.67
26.68 18.15 20.35 19.86 23.16 17.78 18.49 18.75 16.99 18.69 18.20 10.61 7.39 17.55 18.91 10.22 -3.11 6.62 13.15 5.25 9.36 6.89 5.62 4.31 -0.22 1.93 5.09 4.48 7.77 9.09 8.55 8.96 12.08 13.78 15.81 16.71 18.10 18.72 18.45 19.40 18.33 20.15 21.12 24.10
22.91 18.86 16.00 14.23 20.91 20.77 15.43 14.90 5.11 5.38 5.13 12.54 10.29 16.04 -1.11 15.27 14.08 11.59 14.99 5.35 11.62 11.25 4.12 4.29 5.36 5.34 5.45 7.32 17.54 10.81 11.15 10.68 12.92 14.02 18.67 19.67 19.56 20.16 20.40 21.09 20.17 20.82 21.70 22.88
19.70 19.82 17.24 12.36 19.41 15.73 19.00 5.75 4.82 8.12 9.67 9.67 11.11 16.14 18.56 17.30 16.82 12.29 14.51 13.60 13.83 9.62 5.25 6.28 6.63 11.99 10.88 13.96 14.08 18.39 19.41 18.20 16.30 15.27 17.70 19.29 19.10 19.64 20.81 20.37 19.47 19.09 20.88 21.00
25.18 21.33 13.48 8.96 13.80 19.99 19.77 13.77 9.41 11.25 14.26 11.43 13.58 14.15 11.39 7.41 4.84 15.45 1.88 2.71 9.36 5.47 8.84 8.60 7.53 6.65 9.81 10.54 12.66 16.11 14.99 15.85 16.83 15.04 15.64 17.42 19.47 19.40 19.66 18.80 18.13 19.08 20.60 20.58
25.95 22.80 17.11 10.07 12.36 9.74 19.21 16.65 13.71 9.12 10.83 12.86 7.27 11.14 6.62 18.86 15.82 17.24 10.57 1.91 7.74 8.45 5.17 8.83 9.34 9.15 10.55 11.10 14.13 17.47 16.85 16.48 14.93 16.33 17.35 16.70 17.04 16.94 16.37 18.22 19.54 21.27 21.92 21.53
9.43 11.98 9.04 11.94 15.87 14.11 21.90 19.80 19.11 13.08 15.03 17.21 6.48 9.86 10.65 16.61 19.99 20.19 8.81 11.02 5.57 10.72 10.48 7.19 9.54 11.49 12.31 11.54 12.71 15.21 14.74 14.15 16.26 16.54 17.53 16.95 16.55 15.43 16.12 15.90 15.86 16.09 15.46 16.05
10.86 8.84 6.42 9.60 11.77 12.57 21.40 21.84 23.72 24.75 20.91 16.01 13.29 10.16 13.22 16.03 18.71 18.48 18.85 14.71 13.76 12.78 11.03 14.94 12.61 13.38 14.03 15.17 16.31 16.24 15.41 16.67 14.94 14.70 14.31 12.68 10.60 14.84 15.21 8.80 11.46 10.93 10.75 10.36
17.83 18.79 19.56 16.25 18.24 25.04 23.27 26.35 27.74 20.59 21.27 21.57 19.47 22.43 18.94 20.47 20.35 22.40 21.93 20.81 19.32 16.83 16.03 15.81 15.31 15.48 15.47 15.16 15.80 15.30 16.03 14.31 11.66 9.57 8.24 7.08 8.34 13.59 13.61 9.05 10.43 10.02 8.10 8.35
18.89 23.55 20.29 21.13 25.21 26.56 28.92 26.81 24.49 23.99 26.14 27.65 27.61 26.76 25.27 24.70 24.96 24.54 23.62 21.89 20.49 18.56 17.23 16.38 14.89 14.94 15.83 15.08 16.52 16.85 14.04 13.29 9.26 9.58 9.79 9.17 8.74 9.73 8.52 13.74 13.30 10.16 8.11 7.72
22.01 24.46 23.53 23.37 24.59 26.32 27.62 28.28 27.59 26.89 26.19 25.57 26.71 27.45 27.78 26.81 26.22 24.10 23.43 22.88 22.18 20.19 17.82 16.35 16.24 16.75 17.16 14.97 15.26 14.72 13.36 10.91 10.27 9.58 9.99 9.77 10.20 8.57 9.85 11.69 11.48 13.35 12.91 13.41
24.92 22.20 20.41 19.74 24.09 23.17 24.44 26.34 25.54 23.50 23.06 24.84 22.73 22.25 24.75 26.24 24.95 24.14 23.51 23.57 22.21 20.85 17.01 15.78 16.37 16.46 17.51 15.12 15.12 13.40 11.11 11.66 10.85 11.17 10.92 11.00 10.64 9.03 9.78 8.97 10.06 18.32 22.12 22.87
MSLP
1017.43 1017.88 1017.44 1017.01 1017.05 1017.06 1017.02 1017.09 1017.09 1016.68 1016.73 1017.05 1016.33 1015.74 1014.36 1013.92 1014.66 1014.93 1015.33 1015.95 1016.32 1016.67 1016.90 1017.57 1018.24 1018.70 1019.06 1019.28 1019.56 1019.51 1019.32 1019.17 1019.00 1018.74 1018.39 1017.88 1017.56 1017.19 1016.73 1016.25 1015.90 1015.48 1014.86 1014.18
1018.17 1017.68 1016.96 1016.87 1016.97 1017.22 1017.34 1017.43 1017.23 1016.88 1017.21 1017.62 1016.88 1015.62 1014.04 1013.73 1014.01 1014.43 1015.08 1015.75 1016.15 1016.64 1017.16 1017.83 1018.38 1018.76 1019.11 1019.30 1019.30 1019.25 1019.23 1019.17 1019.10 1018.84 1018.50 1018.31 1017.84 1017.04 1016.62 1015.93 1015.36 1014.89 1014.32 1013.67
1018.18 1017.21 1016.86 1017.01 1017.14 1017.34 1017.53 1017.82 1017.70 1017.94 1017.94 1018.23 1018.08 1016.05 1014.48 1013.87 1014.21 1014.45 1014.96 1015.59 1016.08 1016.63 1017.49 1018.12 1018.58 1018.86 1019.05 1019.22 1019.40 1019.49 1019.39 1019.30 1019.10 1018.83 1018.60 1018.24 1017.67 1017.04 1016.47 1015.86 1015.28 1014.64 1014.35 1013.88
1018.03 1017.36 1017.22 1017.37 1017.53 1017.72 1017.91 1017.82 1018.22 1018.65 1019.29 1019.67 1019.25 1017.63 1015.37 1014.52 1014.47 1014.59 1015.03 1015.67 1016.28 1017.01 1017.72 1018.30 1018.66 1018.90 1019.14 1019.42 1019.58 1019.56 1019.37 1019.22 1018.89 1018.72 1018.56 1018.35 1018.04 1017.33 1016.59 1016.18 1015.29 1014.75 1014.30 1013.53
1017.80 1017.59 1017.64 1017.96 1017.86 1018.04 1018.49 1018.65 1019.21 1019.66 1020.33 1020.63 1020.09 1019.81 1015.63 1015.22 1014.97 1014.94 1015.21 1015.85 1016.63 1017.46 1017.98 1018.39 1018.91 1019.17 1019.31 1019.47 1019.48 1019.42 1019.32 1019.06 1018.68 1018.50 1018.36 1018.20 1017.85 1017.24 1016.54 1015.83 1015.14 1014.62 1014.11 1013.24
1018.32 1017.97 1018.11 1018.26 1018.38 1018.48 1019.01 1019.51 1019.96 1020.56 1021.01 1021.25 1020.28 1020.29 1016.89 1016.22 1016.01 1015.87 1016.02 1016.39 1017.04 1017.61 1018.07 1018.65 1019.03 1019.33 1019.39 1019.37 1019.38 1019.33 1019.15 1018.81 1018.48 1018.31 1018.09 1017.90 1017.61 1017.09 1016.44 1015.80 1015.15 1014.56 1013.90 1013.24
1018.66 1018.56 1018.91 1019.09 1019.12 1019.28 1019.66 1020.30 1020.79 1021.48 1021.69 1020.73 1020.46 1020.55 1016.89 1016.18 1016.56 1017.10 1017.45 1017.51 1017.62 1018.10 1018.54 1018.81 1019.02 1019.16 1019.27 1019.32 1019.31 1019.34 1019.06 1018.73 1018.37 1018.18 1017.95 1017.63 1017.31 1016.95 1016.27 1015.62 1015.08 1014.44 1013.83 1013.39
1020.14 1019.67 1019.76 1020.03 1020.18 1020.26 1020.42 1020.90 1021.31 1021.59 1021.69 1021.15 1020.70 1019.41 1016.64 1016.54 1017.14 1017.57 1018.25 1018.30 1018.21 1018.38 1018.64 1018.71 1019.04 1019.32 1019.41 1019.39 1019.44 1019.37 1019.11 1018.69 1018.32 1018.13 1017.78 1017.43 1017.15 1016.78 1016.15 1015.60 1015.08 1014.48 1013.92 1013.45
1021.09 1020.53 1020.38 1020.59 1020.82 1020.92 1020.97 1021.24 1021.52 1021.94 1022.46 1021.93 1019.94 1018.46 1016.79 1017.07 1017.78 1018.22 1018.39 1018.39 1018.34 1018.46 1018.54 1019.07 1019.36 1019.46 1019.67 1019.72 1019.54 1019.45 1019.14 1018.73 1018.39 1018.00 1017.67 1017.27 1016.82 1016.46 1015.96 1015.54 1015.05 1014.47 1013.92 1013.23
1021.22 1021.12 1020.57 1021.04 1021.31 1021.19 1021.15 1021.58 1021.96 1022.23 1022.68 1022.44 1020.78 1020.19 1019.18 1018.43 1018.97 1018.95 1018.92 1018.62 1018.63 1018.59 1018.88 1019.19 1019.52 1019.83 1019.86 1019.77 1019.65 1019.39 1019.10 1018.83 1018.39 1017.88 1017.50 1016.87 1016.56 1016.10 1015.62 1015.14 1014.74 1014.28 1013.79 1013.31
1021.25 1021.74 1020.98 1020.98 1021.17 1020.93 1021.60 1021.65 1022.15 1022.58 1023.31 1023.67 1023.02 1019.73 1018.59 1019.19 1019.52 1019.43 1019.14 1018.65 1018.68 1018.93 1019.31 1019.66 1020.00 1020.10 1020.15 1019.99 1019.82 1019.54 1019.23 1018.98 1018.56 1017.93 1017.33 1016.74 1016.32 1015.76 1015.24 1014.89 1014.51 1014.17 1013.78 1013.41
1021.30 1021.48 1021.02 1020.58 1020.83 1021.12 1021.27 1021.65 1022.32 1023.20 1024.40 1024.85 1024.28 1020.53 1018.35 1019.32 1019.86 1019.86 1019.22 1018.79 1018.82 1019.24 1019.73 1020.12 1020.39 1020.48 1020.52 1020.47 1020.07 1019.91 1019.44 1019.16 1018.52 1017.84 1017.25 1016.68 1016.08 1015.56 1015.30 1014.98 1014.61 1014.23 1013.73 1013.19
1021.43 1021.32 1021.02 1020.50 1021.22 1021.46 1021.62 1021.91 1022.75 1023.38 1024.04 1024.83 1024.31 1020.52 1018.80 1019.85 1019.80 1019.38 1019.42 1019.06 1019.25 1019.73 1020.23 1020.54 1020.90 1020.88 1020.78 1020.61 1020.30 1019.94 1019.42 1019.07 1018.56 1018.01 1017.35 1016.90 1016.32 1015.75 1015.55 1015.07 1014.53 1014.04 1013.51 1012.99
1021.54 1021.38 1021.04 1020.73 1020.65 1021.08 1021.63 1022.32 1022.91 1023.48 1024.56 1024.49 1022.92 1020.55 1018.82 1019.35 1019.69 1019.11 1019.36 1019.41 1019.74 1020.22 1020.77 1020.86 1021.09 1020.96 1020.75 1020.65 1020.47 1020.01 1019.51 1019.09 1018.60 1018.09 1017.64 1017.19 1016.65 1016.06 1015.69 1015.18 1014.69 1013.98 1013.34 1013.10
1021.77 1021.51 1020.94 1020.32 1020.23 1020.60 1020.99 1021.85 1022.91 1023.53 1023.57 1023.73 1022.41 1021.98 1019.73 1019.45 1019.82 1019.61 1020.00 1019.75 1019.91 1020.22 1020.58 1020.65 1020.97 1021.08 1020.72 1020.42 1020.20 1019.70 1019.33 1019.08 1018.62 1018.20 1017.79 1017.47 1017.00 1016.46 1015.95 1015.54 1015.09 1014.37 1013.80 1013.43
1022.12 1021.70 1021.20 1020.29 1019.90 1020.38 1020.96 1021.52 1022.49 1023.18 1023.46 1023.18 1022.69 1021.36 1019.98 1018.97 1019.35 1019.67 1019.84 1020.07 1020.23 1019.99 1020.27 1020.29 1020.60 1020.75 1020.51 1020.30 1020.11 1019.68 1019.29 1018.95 1018.59 1018.22 1017.81 1017.37 1017.00 1016.66 1016.23 1015.88 1015.54 1014.82 1014.35 1013.96
1022.43 1022.28 1021.94 1020.67 1020.22 1020.29 1020.98 1021.22 1022.39 1023.08 1023.14 1022.70 1022.72 1021.08 1020.23 1019.62 1019.58 1019.10 1018.94 1019.42 1019.54 1019.59 1019.91 1019.83 1020.10 1020.10 1019.86 1019.76 1019.37 1019.28 1018.86 1018.68 1018.37 1018.03 1017.71 1017.41 1017.09 1016.71 1016.34 1016.10 1015.81 1015.39 1014.89 1014.48
1022.64 1022.66 1022.49 1021.48 1020.49 1020.21 1020.41 1021.38 1022.24 1022.68 1022.18 1022.27 1022.14 1020.84 1019.89 1019.54 1018.46 1018.46 1018.25 1018.51 1018.70 1019.22 1019.18 1019.19 1019.47 1019.37 1019.37 1019.18 1018.99 1018.79 1018.50 1018.31 1018.15 1018.00 1017.87 1017.61 1017.27 1016.96 1016.60 1016.27 1015.98 1015.79 1015.45 1015.21
1022.91 1022.90 1022.89 1022.51 1021.44 1020.06 1019.74 1020.90 1021.70 1022.35 1021.50 1021.33 1021.50 1020.59 1019.68 1019.23 1019.04 1017.74 1017.69 1017.80 1018.29 1018.61 1018.46 1018.23 1018.53 1018.84 1018.88 1018.72 1018.55 1018.46 1018.24 1018.11 1018.04 1017.96 1017.90 1017.84 1017.68 1017.47 1017.17 1016.80 1016.47 1016.27 1016.04 1015.77
1023.11 1023.14 1023.25 1022.62 1021.78 1020.01 1019.40 1019.63 1020.34 1021.14 1020.92 1020.30 1020.83 1020.64 1020.16 1018.94 1018.74 1017.75 1017.25 1017.60 1017.69 1017.68 1017.93 1017.81 1018.01 1018.26 1018.47 1018.22 1018.22 1018.16 1017.95 1017.82 1017.79 1017.73 1017.72 1017.71 1017.65 1017.66 1017.59 1017.50 1017.26 1016.97 1016.70 1016.52
1023.79 1023.39 1023.21 1022.53 1021.46 1019.74 1018.54 1019.06 1019.67 1020.06 1020.47 1019.54 1020.18 1020.03 1019.65 1019.16 1018.14 1016.71 1016.65 1017.03 1017.13 1016.93 1017.02 1017.27 1017.45 1017.45 1017.39 1017.60 1017.80 1017.92 1017.83 1017.58 1017.28 1017.37 1017.43 1017.56 1017.73 1017.85 1017.80 1017.77 1017.71 1017.60 1017.53 1017.43
1022.84 1022.90 1022.59 1021.87 1020.87 1019.33 1018.05 1018.71 1019.00 1018.96 1018.49 1018.86 1018.87 1018.70 1018.60 1017.55 1016.72 1016.31 1015.93 1015.87 1016.05 1016.11 1016.16 1016.26 1016.61 1016.55 1016.62 1016.96 1017.26 1017.25 1017.22 1016.91 1017.18 1017.35 1017.47 1017.63 1017.68 1017.66 1017.72 1018.02 1017.92 1017.93 1017.97 1017.81
1021.92 1021.26 1021.02 1020.70 1018.98 1018.09 1018.09 1017.93 1017.69 1018.28 1018.38 1017.96 1017.88 1017.66 1017.23 1016.56 1015.89 1015.31 1014.91 1014.78 1014.69 1014.90 1015.12 1015.33 1015.52 1015.59 1015.65 1015.94 1016.34 1016.58 1016.17 1016.67 1017.11 1017.44 1017.49 1017.61 1017.67 1017.58 1017.51 1017.77 1017.83 1017.86 1017.85 1017.87
1021.00 1020.56 1020.43 1019.85 1018.67 1017.84 1017.08 1017.28 1017.78 1017.91 1017.93 1017.49 1017.26 1016.82 1016.37 1015.87 1015.17 1014.56 1014.17 1013.99 1013.93 1013.93 1014.19 1014.43 1014.79 1014.83 1014.77 1014.98 1015.25 1015.23 1015.65 1016.06 1016.68 1016.89 1017.09 1017.38 1017.62 1017.62 1017.61 1017.40 1017.40 1017.46 1017.47 1017.52
1020.98 1020.72 1020.49 1019.85 1018.74 1017.91 1016.84 1017.10 1017.62 1017.77 1017.86 1017.46 1016.93 1016.51 1015.86 1015.30 1014.55 1014.24 1013.69 1013.39 1013.12 1012.99 1013.12 1013.48 1013.76 1013.86 1013.66 1014.02 1014.22 1014.55 1015.04 1015.71 1016.13 1016.36 1016.52 1016.73 1016.98 1017.18 1017.26 1017.31 1017.25 1017.17 1016.86 1016.87
1021.09 1021.12 1021.21 1020.53 1019.93 1020.42 1018.62 1017.87 1018.24 1018.21 1018.12 1017.69 1017.05 1016.05 1015.77 1015.35 1014.69 1014.19 1013.59 1013.10 1012.73 1012.43 1012.34 1012.53 1012.58 1012.85 1012.62 1013.03 1013.35 1013.81 1014.34 1014.97 1015.48 1015.83 1015.91 1016.06 1016.32 1016.49 1016.68 1016.78 1016.52 1016.14 1015.83 1015.79
Wind_Speed
3 1 8 9 7 1 1 3 5 4 1 3 9 10 20 15 7 9 9 8 8 8 5 7 6 4 2 1 3 4 5 6 6 5 6 5 6 7 7 5 10 11 11 11
3 8 6 4 4 6 4 4 6 5 2 1 8 17 19 13 7 5 4 6 7 4 5 5 3 2 2 3 4 5 5 5 5 5 5 4 8 6 8 8 9 9 11 11
6 3 3 4 3 3 3 5 4 5 4 0 7 10 7 1 3 3 4 3 4 7 7 4 1 3 3 4 5 5 5 5 5 6 5 6 7 6 6 6 8 9 12 12
6 4 2 2 3 4 2 1 2 1 3 4 2 9 8 3 7 4 6 4 4 2 3 1 3 4 2 2 3 5 5 7 6 5 5 5 9 11 9 8 9 10 13 13
6 2 1 1 3 4 5 3 1 2 3 4 1 1 11 4 3 2 4 7 5 5 3 4 4 3 2 3 5 5 6 6 6 6 5 5 8 9 9 10 12 11 11 13
7 2 0 3 2 3 4 3 2 3 2 2 1 3 8 4 6 3 2 5 4 5 5 4 2 2 3 4 5 5 6 5 6 6 7 7 9 11 10 10 9 8 8 8
4 1 3 3 1 3 3 4 3 5 3 6 2 1 11 6 4 5 5 8 6 5 5 6 5 5 5 5 5 6 6 8 6 6 7 8 9 9 11 10 8 10 7 8
2 6 3 4 3 1 2 2 2 6 2 3 2 7 8 6 4 6 6 8 8 7 5 6 5 5 5 8 7 6 7 9 7 6 8 7 7 6 7 9 9 8 7 8
1 5 2 3 1 1 4 3 2 4 1 1 2 8 8 2 5 5 8 6 8 7 6 3 4 4 5 6 6 6 8 8 7 8 7 7 6 6 7 8 8 7 9 7
1 5 1 3 1 3 2 2 2 0 1 4 5 6 7 5 4 6 7 8 8 6 6 4 4 5 4 5 6 7 6 6 6 7 5 7 6 5 6 5 7 6 6 6
3 2 2 2 5 5 3 2 1 2 2 5 2 9 8 7 6 6 8 8 7 6 5 5 4 4 5 5 5 6 6 6 7 6 6 6 5 5 4 5 5 5 4 5
2 2 4 5 2 3 1 2 3 3 4 0 3 11 3 6 5 3 11 10 6 3 3 5 5 6 6 6 6 6 6 6 6 5 5 5 5 5 4 4 4 4 4 4
2 3 5 3 2 2 3 3 3 3 3 6 5 10 1 3 6 7 10 8 6 5 4 5 5 5 5 6 6 6 6 6 6 5 5 5 5 5 4 4 4 3 2 3
3 3 5 4 1 2 2 3 4 4 3 4 9 12 17 10 9 13 6 6 6 6 7 6 6 5 5 5 5 6 6 5 5 5 5 5 5 5 4 4 4 3 2 2
1 4 3 9 12 9 10 9 6 8 6 7 4 7 15 15 12 9 6 8 7 7 6 6 4 5 5 5 5 4 4 4 4 5 5 5 5 5 5 5 5 5 5 5
1 4 2 7 5 1 6 9 11 12 7 10 5 24 10 6 5 7 7 5 8 7 7 6 4 5 6 4 6 5 4 4 2 3 4 4 4 4 5 5 5 5 5 6
3 1 3 5 2 7 4 5 4 2 4 6 5 11 6 11 9 7 8 5 8 8 6 6 7 6 5 4 4 4 4 3 3 3 4 4 3 3 4 5 5 6 6 7
1 2 0 5 6 2 4 2 3 5 7 7 8 10 10 12 12 12 10 12 9 6 7 7 6 5 5 3 3 4 3 3 3 4 4 4 3 3 3 3 4 5 4 5
5 2 2 1 3 7 2 3 4 5 6 7 8 8 8 7 6 7 3 4 6 5 6 5 5 4 3 4 4 3 3 3 2 3 3 4 4 5 5 5 4 4 4 5
2 3 2 1 3 2 6 3 4 4 4 6 5 6 5 9 6 7 5 3 6 7 5 6 6 4 4 4 4 4 5 4 4 3 2 2 2 2 3 4 5 4 4 4
1 1 4 4 3 8 6 2 6 6 7 5 4 5 3 2 6 7 6 6 5 5 7 3 6 7 7 5 4 5 5 7 5 3 3 2 3 3 3 3 3 3 3 3
6 6 4 1 1 5 4 2 2 5 5 4 4 5 6 9 12 9 10 9 7 9 6 7 7 8 7 6 6 7 8 6 3 3 2 2 2 2 2 2 2 2 3 3
3 5 2 8 6 1 4 6 4 3 5 6 3 6 7 10 8 11 9 8 7 8 8 7 9 8 7 8 9 9 8 5 4 3 4 4 3 2 2 1 2 1 1 1
3 2 2 3 3 8 13 3 0 2 7 10 8 10 8 11 11 12 10 8 7 6 8 7 8 10 10 9 11 13 5 6 5 6 6 4 4 4 3 2 2 2 2 2
1 2 3 6 5 16 1 8 11 10 10 13 13 11 13 11 13 10 8 8 7 7 7 7 11 11 13 7 11 9 7 6 6 6 5 5 4 4 3 4 4 4 4 5
2 2 2 4 6 4 16 15 16 14 15 15 16 18 13 9 12 10 11 8 7 8 5 7 11 11 13 9 10 8 8 9 8 7 6 6 5 4 4 4 5 12 17 16
Wind_Direction
10 68 227 215 204 232 119 233 264 260 29 279 251 275 274 278 236 258 263 264 254 243 196 166 171 163 175 235 322 331 337 333 338 332 329 328 313 320 305 299 299 291 286 283
11 244 251 243 195 220 232 263 267 272 121 259 305 291 279 285 261 226 248 286 264 195 182 171 161 30 344 303 325 343 342 338 326 320 315 303 311 300 301 294 292 281 290 306
195 211 15 188 201 182 221 208 239 251 324 54 325 291 317 300 275 252 236 261 263 216 195 180 252 319 302 326 343 338 326 316 308 300 300 303 305 300 306 311 310 306 303 302
234 284 249 255 270 143 280 253 137 248 49 264 31 282 300 344 301 265 266 263 263 177 120 142 292 294 291 328 332 318 312 310 309 316 302 302 303 300 302 303 297 306 301 293
265 347 344 222 228 152 232 22 67 98 94 43 7 7 269 357 311 334 314 251 234 215 213 270 298 285 339 323 304 310 304 297 299 299 285 287 291 292 295 298 300 302 302 287
254 286 112 220 60 86 141 45 58 38 103 353 175 149 279 233 207 290 307 312 274 231 253 310 302 230 296 317 320 314 306 298 303 302 300 291 287 293 292 294 299 296 291 306
311 66 71 11 108 65 70 52 300 323 16 223 125 241 248 263 235 214 263 302 290 287 302 305 296 306 323 329 325 318 321 304 302 296 299 291 286 285 287 293 290 296 296 294
15 323 29 354 57 129 144 167 209 244 232 299 137 239 256 218 245 252 260 263 279 282 283 278 293 309 320 322 319 313 310 308 313 305 297 290 279 285 290 288 289 288 293 290
348 280 99 61 99 181 135 207 107 112 155 358 265 281 303 262 311 314 280 288 293 296 287 299 300 312 311 302 306 316 309 308 310 304 300 295 280 287 284 284 282 284 286 295
229 303 106 110 71 326 276 112 173 307 287 284 287 280 244 312 279 297 313 281 294 299 319 317 310 314 310 311 311 305 301 291 291 295 290 301 293 279 277 277 279 283 298 306
140 135 265 132 200 181 162 187 187 85 114 172 300 272 212 220 221 241 293 297 296 309 298 295 301 308 303 303 304 300 309 319 310 310 304 298 300 290 284 287 302 308 310 302
212 248 269 243 61 28 12 151 177 137 255 132 144 273 227 236 252 238 283 295 295 263 298 287 306 305 316 312 318 320 316 322 305 306 304 316 311 309 321 320 319 319 305 286
172 236 300 283 162 138 237 173 130 124 76 201 143 263 271 283 289 266 274 297 310 297 304 297 310 311 307 310 318 321 319 314 317 327 330 339 335 338 335 323 305 304 304 331
173 248 232 257 310 137 243 229 202 138 110 194 231 286 289 308 312 317 304 300 302 291 282 285 297 298 302 306 309 316 318 326 327 334 342 347 336 334 335 324 342 347 348 23
213 256 225 259 268 241 251 227 192 200 199 208 263 234 284 292 290 291 291 294 305 291 284 268 273 296 301 316 310 305 304 322 329 341 351 341 332 337 346 354 350 349 14 24
175 275 297 276 260 295 267 238 221 229 234 270 320 285 298 300 303 285 280 291 293 281 265 263 258 274 284 294 297 304 306 307 335 342 335 335 353 349 346 355 1 1 13 23
196 250 347 273 296 300 295 241 187 204 243 161 195 240 335 299 292 267 284 232 266 272 252 243 236 239 251 264 282 293 297 302 356 356 337 341 356 9 2 4 11 18 19 25
230 120 236 278 322 14 258 203 196 197 239 228 288 270 272 263 273 284 259 254 259 243 247 233 225 225 236 254 282 301 317 327 342 348 340 345 351 359 15 26 33 26 5 18
192 155 274 261 279 291 32 244 162 181 261 194 217 268 279 292 306 302 252 228 235 225 240 215 197 189 207 231 255 279 300 308 330 326 329 339 346 341 347 8 11 13 24 19
195 151 145 329 280 235 237 259 170 134 314 222 199 271 283 334 20 269 313 273 266 233 235 213 195 188 210 241 231 256 263 278 271 265 279 308 337 353 350 347 356 356 4 22
85 280 188 230 274 289 264 196 157 70 268 320 199 257 257 272 211 268 298 282 241 243 224 207 184 201 212 189 189 240 254 253 248 249 268 310 352 343 349 349 360 1 1 26
171 150 208 77 243 299 175 125 10 237 301 236 239 238 248 248 281 281 285 271 252 235 213 210 197 217 212 200 194 228 238 241 227 215 242 273 298 298 0 20 336 3 25 14
253 185 206 186 221 63 205 239 270 160 243 292 254 286 245 276 278 289 280 280 263 230 223 204 211 217 211 198 197 222 236 184 187 192 229 239 266 264 225 222 289 330 51 48
279 173 222 5 282 337 312 233 269 270 290 314 302 299 280 287 292 291 290 280 272 238 226 207 205 224 230 207 208 223 191 182 182 215 222 217 232 248 255 259 210 199 232 256
278 305 286 278 316 330 342 4 349 345 332 324 320 310 296 294 298 284 289 287 269 250 215 198 215 225 234 205 217 213 196 170 202 218 225 224 213 221 238 230 218 231 222 202
314 73 13 267 347 278 288 314 331 346 332 324 325 321 318 307 306 309 306 297 281 273 227 213 220 227 234 216 217 206 184 184 198 222 220 220 216 211 222 230 273 254 251 250